sat.trackr.live / text

‹ back to catalog

STARLINK-4197

NORAD 52849 · 2022-062V

PAYLOAD ACTIVE UNKNOWN

§ Identity

Operator
Country
US
Launch date
2022-06-17
Launch site
AFETR
Launch vehicle
Mass (kg)
RCS (m²)

Purposes: comms

External: N2YO · Heavens-Above · Gunter

§ Orbital elements

Epoch: 2026-05-25T03:32:59.379936Z

Period
95.44 min
Inclination
53.2127°
Eccentricity
0.0001309
Mean motion
15.08836626 rev/d
Perigee alt
538.8 km
Apogee alt
540.7 km
Semi-major
6,917.9 km
B*
4.1203e-5
RAAN
40.8854°
Arg perigee
83.1706°
Mean anomaly
276.9435°
Rev number
21,746

§ Raw data

STARLINK-41971 52849U 22062V   26145.14790949  .00000368  00000+0  41203-4 0  99912 52849  53.2127  40.8854 0001309  83.1706 276.9435 15.08836626217468

JSON: /api/v1/satellites/52849 · /tle

For live sub-satellite position, see the globe view (requires WebGL).

§ Visibility from observer

Set your observer location to see the next 7 days of passes ≥ 10°. The values pass through the URL so the page stays shareable.

No JS? Fill the form by hand. The geolocation button needs JavaScript.